Flag for U.S.A. Weather past 2 weeks in Midway, Midway Atoll, U.S.A.

Now
85 °F

Sunny.


Feels Like: 92 °F
Forecast: 83 / 88 °F
Wind: 6 mph from Southeast

Location: Midway Island Naval Air Facility

Current Time: Aug 29, 2015 at 3:02:39 PM

Latest Report: Aug 29, 2015 at 1:56 PM


Visibility: 7 mi

Pressure: 30.80 "Hg

Humidity: 70%

Dew point: 74 °F

Location of MidwayLocation

Historic Weather in Midway — Graph

°F

Midway temperature yesterday

Maximum temperature yesterday: 86 °F (at 12:56 PM)
Minimum temperature yesterday: 73 °F (at 3:01 AM)
Average temperature yesterday: 80 °F

Past Weeks' High & Low Weather Summary

 TemperatureHumidityPressure
High88 °F (Aug 23, 11:56 AM)100% (Aug 23, 7:19 PM)30.97 "Hg (Aug 23, 7:19 PM)
Low73 °F (Aug 28, 3:01 AM)59% (Aug 20, 12:56 PM)29.65 "Hg (Aug 24, 4:05 PM)
Average82 °F79%30.63 "Hg
* Reported Aug 14 1:56 PM — Aug 29 1:56 PM, Midway, Weather by CustomWeather, © 2015

Note: Actual official high and low records may vary slightly from our data, if they occured in-between our weather recording intervals... More about our weather records

Advertising

Midway weather history for previous 24 hours

 ConditionsComfort  
Time TempWeatherWind HumidityBarometerVisibility
1:56 PM
Sat, Aug 29
85 °FSunny.6 mph70%30.80 "Hg7 mi
12:56 PM85 °FSunny.6 mph72%30.81 "Hg8 mi
11:56 AM85 °FSunny.5 mph72%30.82 "Hg8 mi
10:56 AM85 °FSunny.No wind72%30.83 "Hg10 mi
9:56 AM87 °FSunny.No wind67%30.82 "Hg10 mi
8:56 AM82 °FSunny.No wind77%30.81 "Hg10 mi
7:56 AM79 °FSunny.No wind84%30.80 "Hg10 mi
6:56 AM80 °FSunny.No wind82%30.78 "Hg10 mi
5:56 AM78 °FClear.No wind88%30.75 "Hg7 mi
4:56 AM78 °FClear.No wind88%30.76 "Hg7 mi
3:56 AM79 °FLight rain. Clear.No wind84%30.77 "Hg6 mi
2:56 AM79 °FClear.7 mph84%30.78 "Hg7 mi
1:56 AM78 °FPassing clouds.14 mph94%30.79 "Hg7 mi
12:56 AM78 °FPassing clouds.10 mph90%30.81 "Hg7 mi
12:47 AM77 °FPassing clouds.13 mph89%29.92 "Hg7 mi
12:19 AM79 °FLight rain. Fog.9 mph89%29.93 "Hg2 mi
11:56 PM
Fri, Aug 28
78 °FLight rain. Fog.15 mph94%30.84 "Hg1 mi
10:56 PM82 °FPassing clouds.8 mph85%30.83 "Hg7 mi
9:56 PM83 °FPassing clouds.9 mph82%30.84 "Hg6 mi
7:56 PM83 °FHaze.12 mph82%30.80 "Hg6 mi
6:56 PM83 °FHaze.7 mph82%30.80 "Hg4 mi
5:56 PM84 °FSunny.6 mph80%30.80 "Hg9 mi
4:56 PM85 °FSunny.6 mph75%30.79 "Hg9 mi
3:56 PM86 °FSunny.7 mph72%30.80 "Hg10 mi
Weather by CustomWeather, © 2015

See weather overviewHow to use our weather pages